Location: Hylvaty SDH
(49.9612°N, 16.4057°E)
Time: 18:42:22
(UTC+02:00)

Transit 4A - Pass Details

Date: 17 August 2020
Orbit: 862 x 982 km, 66.8° (Epoch: 28 September)

Event Time Altitude Azimuth Distance (km) Brightness Sun altitude
Rises 06:48:46 0° 148° (SSE) 3,495 11.2 8.6°
Reaches altitude 10° 06:53:16 10° 117° (ESE) 2,592 11.3 9.3°
Maximum altitude 06:55:02 11° 99° (E) 2,509 11.9 9.6°
Drops below altitude 10° 06:56:49 10° 82° (E) 2,623 15.5 9.9°
Sets 07:01:26 0° 51° (NE) 3,607 12.1 10.6°
